CW7104 Weather Reports


time (UTC)temp
C
wind
direction
speed
KPH
gust
KPH
rain 1hr
cm
rain 24hr
cm
rain mn
cm
humidity
%
barometer
mb
20260905064405 26 225 0.0 0.0 0.00 0.00 0.00 75 1012.6
20260905063406 26 225 0.0 0.0 0.00 0.00 0.00 74 1012.7
20260905062905 26 225 0.0 0.0 0.00 0.00 0.00 74 1012.7
20260905061905 26 225 0.0 0.0 0.00 0.00 0.00 74 1012.7
20260905060906 26 225 0.0 0.0 0.00 0.00 0.00 73 1012.7
20260905060405 26 225 0.0 0.0 0.00 0.00 0.00 73 1012.7
20260905055905 26 225 0.0 0.0 0.00 0.00 0.00 73 1012.7
20260905055405 26 225 0.0 0.0 0.00 0.00 0.00 73 1012.8
20260905054905 26 225 0.0 0.0 0.00 0.00 0.00 73 1012.8
20260905054405 26 225 0.0 0.0 0.00 0.00 0.00 73 1012.9
20260905053905 26 225 0.0 0.0 0.00 0.00 0.00 73 1012.9
20260905052905 26 225 0.0 0.0 0.00 0.00 0.00 72 1013.0
20260905052405 27 225 0.0 0.0 0.00 0.00 0.00 72 1013.0
20260905051905 27 225 0.0 0.0 0.00 0.00 0.00 71 1013.0
20260905051404 27 225 0.0 0.0 0.00 0.00 0.00 71 1013.0
20260905050905 27 225 0.0 0.0 0.00 0.00 0.00 70 1013.0
20260905050405 27 225 0.0 0.0 0.00 0.00 0.00 69 1012.9
20260905045905 27 225 0.0 0.0 0.00 0.00 0.00 69 1012.9
20260905045405 27 225 0.0 0.0 0.00 0.00 0.00 69 1012.9
20260905043905 27 217 0.0 0.0 0.00 0.00 0.00 68 1012.8
20260905043405 27 217 0.0 0.0 0.00 0.00 0.00 68 1012.8
20260905042905 27 217 0.0 0.0 0.00 0.00 0.00 69 1012.7
20260905042405 27 217 0.0 0.0 0.00 0.00 0.00 69 1012.8
20260905041905 27 217 0.0 0.0 0.00 0.00 0.00 69 1012.8
20260905041405 28 217 0.0 0.0 0.00 0.00 0.00 69 1012.9
20260905040905 28 217 0.0 0.0 0.00 0.00 0.00 68 1013.0
20260905035905 29 217 0.0 0.0 0.00 0.00 0.00 67 1013.0
20260905034905 29 217 0.0 0.0 0.00 0.00 0.00 63 1013.1
20260905034404 29 218 0.0 0.0 0.00 0.00 0.00 64 1013.1
20260905033905 29 218 0.0 0.0 0.00 0.00 0.00 63 1013.1
20260905033405 30 218 0.0 0.0 0.00 0.00 0.00 62 1013.0
20260905032905 30 218 0.0 0.0 0.00 0.00 0.00 62 1013.0
20260905032405 30 218 0.0 0.0 0.00 0.00 0.00 62 1013.0
20260905031405 30 217 0.0 0.0 0.00 0.00 0.00 62 1013.2
20260905030904 30 217 0.0 0.0 0.00 0.00 0.00 62 1013.2
20260905030405 30 217 0.0 0.0 0.00 0.00 0.00 62 1013.2
20260905025905 30 218 0.0 0.0 0.00 0.00 0.00 63 1013.2
20260905025405 29 222 0.0 3.2 0.00 0.00 0.00 63 1013.2
20260905024905 29 220 0.0 0.0 0.00 0.00 0.00 64 1013.1
20260905023905 29 217 0.0 0.0 0.00 0.00 0.00 65 1013.0
20260905023405 30 217 0.0 0.0 0.00 0.00 0.00 65 1013.0
20260905022905 30 217 0.0 0.0 0.00 0.00 0.00 65 1013.0
20260905022405 30 217 0.0 0.0 0.00 0.00 0.00 65 1012.9
20260905021905 30 217 0.0 0.0 0.00 0.00 0.00 64 1012.9
20260905021404 30 217 0.0 0.0 0.00 0.00 0.00 63 1012.8
20260905020405 30 217 0.0 0.0 0.00 0.00 0.00 63 1012.9
20260905015905 30 217 0.0 0.0 0.00 0.00 0.00 63 1012.8
20260905015404 30 217 0.0 0.0 0.00 0.00 0.00 63 1012.8
20260905014905 30 217 0.0 0.0 0.00 0.00 0.00 63 1012.7
20260905014404 30 212 0.0 0.0 0.00 0.00 0.00 62 1012.7
20260905013905 31 212 0.0 0.0 0.00 0.00 0.00 62 1012.6
20260905012405 31 212 0.0 0.0 0.00 0.00 0.00 62 1012.4
20260905011905 31 212 0.0 0.0 0.00 0.00 0.00 61 1012.5
20260905011405 31 212 0.0 0.0 0.00 0.00 0.00 61 1012.4
20260905010905 31 212 0.0 0.0 0.00 0.00 0.00 60 1012.4
20260905010404 31 212 0.0 0.0 0.00 0.00 0.00 59 1012.5
20260905005904 31 212 0.0 0.0 0.00 0.00 0.00 59 1012.5
20260905005405 31 212 0.0 0.0 0.00 0.00 0.00 58 1012.5
20260905004905 32 212 0.0 0.0 0.00 0.00 0.00 57 1012.4
20260905004405 32 212 0.0 0.0 0.00 0.00 0.00 56 1012.5
20260905003404 32 212 0.0 0.0 0.00 0.00 0.00 54 1012.3
20260905002905 32 212 0.0 0.0 0.00 0.00 0.00 54 1012.3
20260905002405 33 212 0.0 0.0 0.00 0.00 0.00 53 1012.2
20260905001904 33 212 0.0 0.0 0.00 0.00 0.00 52 1012.2
20260905001404 33 212 0.0 0.0 0.00 0.00 0.00 51 1012.1
20260905000404 34 212 0.0 0.0 0.00 0.00 0.00 50 1012.2
20260904235405 35 212 0.0 0.0 0.00 0.00 0.00 50 1012.2
20260904234905 35 212 0.0 0.0 0.00 0.00 0.00 49 1012.2
20260904233905 36 212 0.0 0.0 0.00 0.00 0.00 47 1012.2
20260904233404 36 212 0.0 0.0 0.00 0.00 0.00 47 1012.0
20260904232905 36 212 0.0 0.0 0.00 0.00 0.00 46 1012.0
20260904232405 36 212 0.0 0.0 0.00 0.00 0.00 46 1012.0
20260904231904 36 212 0.0 0.0 0.00 0.00 0.00 46 1011.9
20260904231404 36 212 0.0 0.0 0.00 0.00 0.00 45 1011.9
20260904230904 36 212 0.0 0.0 0.00 0.00 0.00 45 1011.9
20260904230405 36 212 0.0 0.0 0.00 0.00 0.00 45 1011.9
20260904225904 36 213 0.0 0.0 0.00 0.00 0.00 44 1011.8
20260904225404 36 213 0.0 0.0 0.00 0.00 0.00 43 1011.8
20260904224904 36 213 0.0 0.0 0.00 0.00 0.00 43 1011.8
20260904224405 37 213 0.0 0.0 0.00 0.00 0.00 42 1011.8
20260904223905 37 213 0.0 0.0 0.00 0.00 0.00 42 1011.7
20260904223404 37 216 0.0 0.0 0.00 0.00 0.00 42 1011.7
20260904222404 38 217 0.0 0.0 0.00 0.00 0.00 40 1011.6
20260904221905 38 217 0.0 0.0 0.00 0.00 0.00 39 1011.7
20260904221405 38 240 0.0 0.0 0.00 0.00 0.00 39 1011.7
20260904220904 38 240 0.0 0.0 0.00 0.00 0.00 41 1011.8
20260904220405 38 240 0.0 0.0 0.00 0.00 0.00 40 1011.8
20260904215904 37 240 0.0 0.0 0.00 0.00 0.00 40 1011.9
20260904215404 37 240 0.0 0.0 0.00 0.00 0.00 43 1011.9
20260904214905 37 240 0.0 0.0 0.00 0.00 0.00 42 1012.1
20260904214404 37 240 0.0 0.0 0.00 0.00 0.00 42 1012.2
20260904213904 38 240 0.0 0.0 0.00 0.00 0.00 40 1012.2
20260904213405 38 241 0.0 0.0 0.00 0.00 0.00 39 1012.3
20260904212905 38 241 0.0 0.0 0.00 0.00 0.00 38 1012.3
20260904211905 38 222 0.0 0.0 0.00 0.00 0.00 38 1012.4
20260904211405 38 221 0.0 0.0 0.00 0.00 0.00 38 1012.5
20260904210904 38 221 0.0 0.0 0.00 0.00 0.00 43 1012.5
20260904210405 37 221 0.0 0.0 0.00 0.00 0.00 43 1012.6
20260904205404 36 222 0.0 0.0 0.00 0.00 0.00 45 1012.8
20260904204905 36 222 0.0 0.0 0.00 0.00 0.00 44 1012.8
20260904203904 37 197 0.0 1.6 0.00 0.00 0.00 42 1012.8
20260904203404 38 229 0.0 12.9 0.00 0.00 0.00 41 1012.9
20260904202904 37 176 0.0 8.0 0.00 0.00 0.00 42 1012.9
20260904202404 37 211 0.0 0.0 0.00 0.00 0.00 42 1013.0
20260904201904 37 157 0.0 0.0 0.00 0.00 0.00 41 1013.0
20260904201405 38 157 0.0 0.0 0.00 0.00 0.00 40 1013.0
20260904200905 38 177 0.0 11.3 0.00 0.00 0.00 39 1013.1
20260904200405 39 147 0.0 0.0 0.00 0.00 0.00 40 1013.1
20260904195904 39 159 0.0 0.0 0.00 0.00 0.00 40 1013.2
20260904195405 39 213 0.0 0.0 0.00 0.00 0.00 39 1013.4
20260904194904 39 185 0.0 1.6 0.00 0.00 0.00 39 1013.4
20260904194404 39 203 0.0 1.6 0.00 0.00 0.00 39 1013.5
20260904193905 39 203 0.0 0.0 0.00 0.00 0.00 39 1013.6
20260904193404 38 181 0.0 0.0 0.00 0.00 0.00 39 1013.7
20260904192904 38 211 1.6 11.3 0.00 0.00 0.00 41 1013.7
20260904192404 38 195 0.0 0.0 0.00 0.00 0.00 42 1013.8
20260904191905 38 151 0.0 3.2 0.00 0.00 0.00 43 1013.9
20260904191404 37 199 1.6 9.7 0.00 0.00 0.00 43 1014.0
20260904190904 37 225 0.0 1.6 0.00 0.00 0.00 44 1014.0
20260904190404 36 259 0.0 0.0 0.00 0.00 0.00 46 1014.1
20260904185905 37 261 0.0 0.0 0.00 0.00 0.00 42 1014.2
20260904185404 37 261 0.0 1.6 0.00 0.00 0.00 41 1014.2
20260904161404 35 267 0.0 0.0 0.00 0.00 0.00 53 1015.6
20260904160905 35 267 0.0 0.0 0.00 0.00 0.00 54 1015.6
20260904155904 35 266 1.6 8.0 0.00 0.00 0.00 53 1015.6
20260904155404 35 224 0.0 9.7 0.00 0.00 0.00 53 1015.5
20260904154404 34 226 0.0 0.0 0.00 0.00 0.00 54 1015.6
20260904153904 34 209 0.0 0.0 0.00 0.00 0.00 54 1015.6
20260904153404 34 283 0.0 0.0 0.00 0.00 0.00 55 1015.5
20260904152904 34 229 0.0 0.0 0.00 0.00 0.00 55 1015.6
20260904151904 33 185 0.0 0.0 0.00 0.00 0.00 55 1015.7
20260904151404 33 235 0.0 0.0 0.00 0.00 0.00 56 1015.7
20260904150904 33 217 0.0 0.0 0.00 0.00 0.00 57 1015.6
20260904145404 31 250 0.0 0.0 0.00 0.00 0.00 62 1015.7
20260904144904 31 239 0.0 0.0 0.00 0.00 0.00 64 1015.6
20260904144404 31 231 0.0 0.0 0.00 0.00 0.00 64 1015.6
20260904143904 30 234 0.0 0.0 0.00 0.00 0.00 66 1015.7
20260904142904 30 232 0.0 0.0 0.00 0.00 0.00 68 1015.6
20260904142404 29 228 0.0 0.0 0.00 0.00 0.00 69 1015.7
20260904141904 29 229 0.0 0.0 0.00 0.00 0.00 71 1015.6
20260904141404 28 229 0.0 0.0 0.00 0.00 0.00 72 1015.6
20260904140904 28 229 0.0 0.0 0.00 0.00 0.00 73 1015.5
20260904140403 28 229 0.0 0.0 0.00 0.00 0.00 74 1015.5
20260904135904 27 229 0.0 0.0 0.00 0.00 0.00 75 1015.5
20260904135404 27 197 0.0 0.0 0.00 0.00 0.00 77 1015.6
20260904134903 27 174 0.0 0.0 0.00 0.00 0.00 78 1015.5
20260904134404 26 174 0.0 0.0 0.00 0.00 0.00 79 1015.6
20260904133904 26 174 0.0 0.0 0.00 0.00 0.00 80 1015.6
20260904133404 26 174 0.0 0.0 0.00 0.00 0.00 81 1015.5
20260904132904 26 174 0.0 0.0 0.00 0.00 0.00 81 1015.5
20260904131904 25 142 0.0 0.0 0.00 0.00 0.00 82 1015.5
20260904131404 25 182 0.0 0.0 0.00 0.00 0.00 82 1015.5
20260904130903 24 182 0.0 0.0 0.00 0.00 0.00 82 1015.4
20260904125904 24 206 0.0 0.0 0.00 0.00 0.00 82 1015.4
20260904125404 23 206 0.0 0.0 0.00 0.00 0.00 82 1015.4
20260904124904 23 206 0.0 0.0 0.00 0.00 0.00 82 1015.4
20260904123903 23 206 0.0 0.0 0.00 0.00 0.00 82 1015.4
20260904123403 23 206 0.0 0.0 0.00 0.00 0.00 82 1015.4
20260904122904 23 206 0.0 0.0 0.00 0.00 0.00 82 1015.5
20260904122404 23 206 0.0 0.0 0.00 0.00 0.00 82 1015.4
20260904121904 23 206 0.0 0.0 0.00 0.00 0.00 82 1015.3
20260904121404 22 206 0.0 0.0 0.00 0.00 0.00 82 1015.3
20260904120904 22 206 0.0 0.0 0.00 0.00 0.00 82 1015.2
20260904120404 22 206 0.0 0.0 0.00 0.00 0.00 82 1015.2
20260904115903 22 206 0.0 0.0 0.00 0.00 0.00 82 1015.2
20260904115403 22 206 0.0 0.0 0.00 0.00 0.00 82 1015.2
20260904114904 22 206 0.0 0.0 0.00 0.00 0.00 82 1015.2
20260904114404 22 206 0.0 0.0 0.00 0.00 0.00 82 1015.1
20260904113403 22 204 0.0 0.0 0.00 0.00 0.00 82 1014.9
20260904112904 22 203 0.0 0.0 0.00 0.00 0.00 82 1014.9
20260904112404 22 203 0.0 0.0 0.00 0.00 0.00 82 1014.7
20260904111904 22 203 0.0 0.0 0.00 0.00 0.00 82 1014.7
20260904111404 22 203 0.0 0.0 0.00 0.00 0.00 82 1014.6
20260904110903 22 203 0.0 0.0 0.00 0.00 0.00 82 1014.5
20260904105904 22 203 0.0 0.0 0.00 0.00 0.00 82 1014.4
20260904105404 22 203 0.0 0.0 0.00 0.00 0.00 82 1014.4
20260904104903 22 203 0.0 0.0 0.00 0.00 0.00 82 1014.4
20260904104404 22 203 0.0 0.0 0.00 0.00 0.00 82 1014.4
20260904103904 22 203 0.0 0.0 0.00 0.00 0.00 82 1014.4
20260904103404 22 203 0.0 0.0 0.00 0.00 0.00 82 1014.3
20260904102903 22 203 0.0 0.0 0.00 0.00 0.00 82 1014.3
20260904102403 22 203 0.0 0.0 0.00 0.00 0.00 82 1014.2
20260904101904 22 203 0.0 0.0 0.00 0.00 0.00 82 1014.3
20260904101404 22 203 0.0 0.0 0.00 0.00 0.00 82 1014.4
20260904100903 22 203 0.0 0.0 0.00 0.00 0.00 82 1014.3
20260904100403 22 203 0.0 0.0 0.00 0.00 0.00 82 1014.4
20260904095904 22 204 0.0 0.0 0.00 0.00 0.00 82 1014.2
20260904095403 22 203 0.0 0.0 0.00 0.00 0.00 82 1014.3
20260904094904 22 203 0.0 0.0 0.00 0.00 0.00 82 1014.2
20260904094404 22 203 0.0 0.0 0.00 0.00 0.00 82 1014.3
20260904093403 22 203 0.0 0.0 0.00 0.00 0.00 82 1014.3
20260904092404 22 204 0.0 0.0 0.00 0.00 0.00 82 1014.2
20260904091904 22 203 0.0 0.0 0.00 0.00 0.00 81 1014.1
20260904091403 22 204 0.0 0.0 0.00 0.00 0.00 81 1014.1
20260904090905 22 204 0.0 0.0 0.00 0.00 0.00 81 1014.0
20260904090405 22 204 0.0 0.0 0.00 0.00 0.00 81 1014.0
20260904085906 22 204 0.0 0.0 0.00 0.00 0.00 81 1014.0
20260904085405 22 204 0.0 0.0 0.00 0.00 0.00 81 1014.1
20260904084905 22 204 0.0 0.0 0.00 0.00 0.00 81 1014.0
20260904084406 22 204 0.0 0.0 0.00 0.00 0.00 81 1013.9
20260904083906 23 203 0.0 0.0 0.00 0.00 0.00 81 1013.9
20260904083405 23 204 0.0 0.0 0.00 0.00 0.00 81 1013.9
20260904082405 23 204 0.0 0.0 0.00 0.00 0.00 81 1013.9
20260904081905 23 204 0.0 0.0 0.00 0.00 0.00 81 1013.9
20260904080905 23 204 0.0 0.0 0.00 0.00 0.00 81 1013.8
20260904075905 23 204 0.0 0.0 0.00 0.00 0.00 81 1013.7
20260904075405 23 204 0.0 0.0 0.00 0.00 0.00 81 1013.7
20260904074905 23 204 0.0 0.0 0.00 0.00 0.00 81 1013.7
20260904074405 23 204 0.0 0.0 0.00 0.00 0.00 80 1013.7
20260904073905 23 204 0.0 0.0 0.00 0.00 0.00 80 1013.8
20260904073405 23 204 0.0 0.0 0.00 0.00 0.00 80 1013.8
20260904072405 23 204 0.0 0.0 0.00 0.00 0.00 81 1013.7
20260904071405 23 204 0.0 0.0 0.00 0.00 0.00 80 1013.8
20260904070905 23 204 0.0 0.0 0.00 0.00 0.00 80 1013.8
20260904070405 23 204 0.0 0.0 0.00 0.00 0.00 81 1013.8
20260904065905 23 204 0.0 0.0 0.00 0.00 0.00 80 1013.9
20260904065405 23 203 0.0 0.0 0.00 0.00 0.00 80 1013.9
20260904064905 23 204 0.0 0.0 0.00 0.00 0.00 80 1013.9